Zurück zum Katalog

IRIDIUM 26

AktivKommunikationPO
NORAD 24903·PAYLOAD·🇺🇸 United States

Gestartet Aug 21, 1997 von Vandenberg Space Force Base

Loading…

Nächste Überflüge (nächste 24 Stunden)

TLE

AktuellSource: Space-Track

Epoche: Sep 14, 2026, 08:42 UTC

1 24903U 97043A   26257.36274668  .00000220  00000-0  66919-4 0  9994
2 24903  86.3901 279.7115 0002363  86.8329 273.3139 14.37521681521980

Verfolge IRIDIUM 26 in Echtzeit mit AllMySat

Download on the App Store